UAE175 OMDB-ULLI

Flight info

Callsign UAE175
Flight time N/A
Altitude 33000
Route ANVIX L223 TARDI N629 IVAKU G216 KC Z302 NH G326 ZB G325 REGET J139 LAKRA/N0478F380 M881 LAJAK L509 TAPIS M875 AMDAR/K0895F380 M875 MILSO M161 DENUD T784 GITEK/K0915F400 T784 ROKUR P164 PINOK N50 GENPA GENPA1B
Aircraft B77W/H-SDE1E2E3FGHIJ2J3J4J5M1RWXY/LB1D1

Departure

Time 2026-04-23 05:41
Airport Dubai International Airport (OMDB)

Arrival

Time N/A
Airport Pulkovo Airport (ULLI)
Time Latitude Longitude Altitude Speed Heading
2026-04-23 04:42 25.25213 55.35321 27 ft 0 kts 31°
2026-04-23 05:26 25.25196 55.35309 25 ft 4 kts 31°
2026-04-23 05:26 25.25172 55.35296 27 ft 4 kts 11°
2026-04-23 05:27 25.25147 55.35298 24 ft 4 kts 329°
2026-04-23 05:27 25.25130 55.35315 25 ft 1 kts 306°
2026-04-23 05:27 25.25129 55.35315 25 ft 0 kts 306°
2026-04-23 05:30 25.25138 55.35303 26 ft 8 kts 306°
2026-04-23 05:31 25.25194 55.35222 27 ft 15 kts 309°
2026-04-23 05:31 25.25252 55.35126 27 ft 15 kts 302°
2026-04-23 05:31 25.25308 55.35029 27 ft 15 kts 302°
2026-04-23 05:31 25.25364 55.34934 27 ft 15 kts 310°
2026-04-23 05:32 25.25460 55.34900 27 ft 15 kts
2026-04-23 05:32 25.25551 55.34954 27 ft 15 kts 32°
2026-04-23 05:32 25.25630 55.35006 27 ft 10 kts 31°
2026-04-23 05:32 25.25674 55.35063 27 ft 10 kts 85°
2026-04-23 05:33 25.25681 55.35140 27 ft 10 kts 58°
2026-04-23 05:33 25.25737 55.35191 27 ft 10 kts 33°
2026-04-23 05:33 25.25799 55.35233 26 ft 10 kts 31°
2026-04-23 05:33 25.25865 55.35277 27 ft 12 kts 31°
2026-04-23 05:34 25.25942 55.35330 26 ft 14 kts 38°
2026-04-23 05:34 25.26002 55.35425 27 ft 16 kts 74°
2026-04-23 05:34 25.25989 55.35553 27 ft 18 kts 116°
2026-04-23 05:34 25.25919 55.35682 27 ft 20 kts 121°
2026-04-23 05:35 25.25846 55.35812 27 ft 20 kts 122°
2026-04-23 05:35 25.25771 55.35944 27 ft 20 kts 121°
2026-04-23 05:35 25.25697 55.36075 27 ft 20 kts 122°
2026-04-23 05:35 25.25623 55.36207 27 ft 20 kts 122°
2026-04-23 05:36 25.25550 55.36337 27 ft 20 kts 121°
2026-04-23 05:36 25.25477 55.36469 27 ft 20 kts 122°
2026-04-23 05:36 25.25403 55.36601 27 ft 20 kts 122°
2026-04-23 05:36 25.25329 55.36730 27 ft 20 kts 122°
2026-04-23 05:37 25.25254 55.36861 27 ft 20 kts 122°
2026-04-23 05:37 25.25180 55.36993 27 ft 20 kts 121°
2026-04-23 05:37 25.25107 55.37125 27 ft 20 kts 123°
2026-04-23 05:37 25.25033 55.37256 27 ft 20 kts 121°
2026-04-23 05:38 25.24960 55.37387 27 ft 20 kts 121°
2026-04-23 05:38 25.24885 55.37518 27 ft 20 kts 121°
2026-04-23 05:38 25.24811 55.37650 27 ft 20 kts 122°
2026-04-23 05:38 25.24738 55.37780 27 ft 17 kts 122°
2026-04-23 05:39 25.24713 55.37848 27 ft 10 kts 81°
2026-04-23 05:39 25.24760 55.37901 27 ft 10 kts 34°
2026-04-23 05:39 25.24814 55.37937 27 ft 9 kts 21°
2026-04-23 05:39 25.24866 55.37909 27 ft 9 kts 311°
2026-04-23 05:40 25.24952 55.37761 27 ft 45 kts 302°
2026-04-23 05:40 25.25234 55.37253 27 ft 109 kts 301°
2026-04-23 05:40 25.25731 55.36360 27 ft 162 kts 301°
2026-04-23 05:40 25.26406 55.35168 49 ft 199 kts 303°
2026-04-23 05:41 25.27161 55.33841 399 ft 204 kts 303°
2026-04-23 05:41 25.27882 55.32526 1002 ft 200 kts 300°
2026-04-23 05:41 25.28611 55.31185 1436 ft 206 kts 298°
2026-04-23 05:41 25.29298 55.29794 1912 ft 205 kts 290°
2026-04-23 05:42 25.29420 55.28232 2222 ft 205 kts 251°
2026-04-23 05:42 25.28770 55.26866 2681 ft 200 kts 237°
2026-04-23 05:42 25.28056 55.25516 2914 ft 212 kts 242°
2026-04-23 05:42 25.27372 55.24080 3317 ft 211 kts 243°
2026-04-23 05:43 25.26722 55.22640 3650 ft 213 kts 245°
2026-04-23 05:43 25.26072 55.21175 4058 ft 213 kts 244°
2026-04-23 05:43 25.25400 55.19638 4172 ft 231 kts 244°
2026-04-23 05:43 25.24654 55.18025 4466 ft 240 kts 233°
2026-04-23 05:44 25.23352 55.16877 4802 ft 243 kts 197°
2026-04-23 05:44 25.21682 55.16706 5169 ft 248 kts 176°
2026-04-23 05:44 25.19930 55.16890 5609 ft 252 kts 168°
2026-04-23 05:44 25.18363 55.17779 6042 ft 264 kts 137°
2026-04-23 05:45 25.17285 55.19503 6214 ft 280 kts 119°
2026-04-23 05:45 25.16391 55.21425 6619 ft 289 kts 120°
2026-04-23 05:45 25.15452 55.23407 7165 ft 293 kts 120°
2026-04-23 05:45 25.14497 55.25408 7758 ft 295 kts 120°
2026-04-23 05:46 25.13535 55.27421 8355 ft 298 kts 120°
2026-04-23 05:46 25.12560 55.29460 8944 ft 301 kts 121°
2026-04-23 05:46 25.11582 55.31497 9486 ft 304 kts 121°
2026-04-23 05:46 25.10585 55.33582 10039 ft 308 kts 119°
2026-04-23 05:47 25.09669 55.35746 10464 ft 318 kts 117°
2026-04-23 05:47 25.08749 55.38020 10619 ft 338 kts 116°
2026-04-23 05:47 25.07754 55.40466 10773 ft 359 kts 117°
2026-04-23 05:47 25.06712 55.43054 10924 ft 379 kts 115°
2026-04-23 05:48 25.05665 55.45785 11309 ft 391 kts 115°
2026-04-23 05:48 25.04602 55.48588 11887 ft 398 kts 115°
2026-04-23 05:48 25.03521 55.51415 12583 ft 399 kts 115°
2026-04-23 05:48 25.02449 55.54200 13281 ft 398 kts 115°
2026-04-23 05:49 25.01289 55.56983 13865 ft 398 kts 121°
2026-04-23 05:49 24.99882 55.59622 14347 ft 401 kts 124°
2026-04-23 05:49 24.98374 55.62230 14815 ft 404 kts 125°
2026-04-23 05:49 24.96874 55.64876 15316 ft 408 kts 124°
2026-04-23 05:50 24.95404 55.67558 15838 ft 410 kts 123°
2026-04-23 05:50 24.93950 55.70232 16354 ft 413 kts 124°
2026-04-23 05:50 24.92341 55.72849 16850 ft 415 kts 128°
2026-04-23 05:50 24.90610 55.75398 17352 ft 418 kts 130°
2026-04-23 05:51 24.88843 55.77959 17864 ft 421 kts 129°
2026-04-23 05:51 24.87090 55.80547 18377 ft 423 kts 129°
2026-04-23 05:51 24.85341 55.83170 18795 ft 426 kts 128°
2026-04-23 05:51 24.83588 55.85814 19197 ft 430 kts 129°
2026-04-23 05:52 24.81800 55.88475 19583 ft 434 kts 129°
2026-04-23 05:52 24.79992 55.91147 20023 ft 436 kts 129°
2026-04-23 05:52 24.78167 55.93830 20428 ft 439 kts 131°
2026-04-23 05:52 24.76102 55.96305 20685 ft 442 kts 140°
2026-04-23 05:53 24.73791 55.98552 21052 ft 445 kts 142°
2026-04-23 05:53 24.71454 56.00798 21478 ft 448 kts 141°
2026-04-23 05:53 24.69148 56.03112 21878 ft 451 kts 140°
2026-04-23 05:53 24.66846 56.05480 22248 ft 455 kts 140°
2026-04-23 05:54 24.64530 56.07864 22575 ft 459 kts 140°
2026-04-23 05:54 24.62188 56.10267 22896 ft 462 kts 140°
2026-04-23 05:54 24.59825 56.12685 23239 ft 466 kts 140°
2026-04-23 05:54 24.57457 56.15134 23574 ft 469 kts 139°
2026-04-23 05:55 24.55212 56.17758 23871 ft 474 kts 134°
2026-04-23 05:55 24.53070 56.20520 24131 ft 477 kts 133°
2026-04-23 05:55 24.50925 56.23308 24410 ft 480 kts 133°
2026-04-23 05:55 24.48759 56.26111 24722 ft 482 kts 133°
2026-04-23 05:56 24.46608 56.28876 25010 ft 484 kts 133°
2026-04-23 05:56 24.44408 56.31686 25293 ft 487 kts 133°
2026-04-23 05:56 24.42196 56.34500 25602 ft 488 kts 133°
2026-04-23 05:56 24.39974 56.37321 25864 ft 490 kts 133°
2026-04-23 05:57 24.37735 56.40162 26106 ft 493 kts 133°
2026-04-23 05:57 24.35486 56.43014 26335 ft 496 kts 133°
2026-04-23 05:57 24.33226 56.45882 26585 ft 498 kts 133°
2026-04-23 05:57 24.30951 56.48766 26840 ft 501 kts 133°
2026-04-23 05:58 24.28745 56.51731 27094 ft 504 kts 128°
2026-04-23 05:58 24.26677 56.54844 27312 ft 507 kts 128°
2026-04-23 05:58 24.24617 56.57987 27554 ft 509 kts 128°
2026-04-23 05:58 24.22551 56.61140 27849 ft 510 kts 128°
2026-04-23 05:59 24.20471 56.64298 28111 ft 511 kts 128°
2026-04-23 05:59 24.18380 56.67457 28333 ft 514 kts 128°
2026-04-23 05:59 24.16275 56.70627 28521 ft 516 kts 128°
2026-04-23 05:59 24.14154 56.73813 28709 ft 518 kts 128°
2026-04-23 06:00 24.12028 56.77004 28926 ft 520 kts 128°
2026-04-23 06:00 24.09895 56.80205 29113 ft 522 kts 128°
2026-04-23 06:00 24.07756 56.83416 29312 ft 523 kts 128°
2026-04-23 06:00 24.05606 56.86641 29482 ft 525 kts 127°
2026-04-23 06:01 24.04180 56.88778 29551 ft 526 kts 127°
2026-04-23 06:01 24.02015 56.92011 29727 ft 528 kts 128°
2026-04-23 06:01 23.99842 56.95243 29940 ft 528 kts 128°
2026-04-23 06:01 23.97665 56.98476 30164 ft 527 kts 128°
2026-04-23 06:02 23.95493 57.01701 30354 ft 527 kts 128°
2026-04-23 06:02 23.93319 57.04931 30525 ft 528 kts 128°
2026-04-23 06:02 23.91142 57.08163 30681 ft 528 kts 128°
2026-04-23 06:02 23.88960 57.11402 30875 ft 529 kts 128°
2026-04-23 06:03 23.86789 57.14627 31165 ft 526 kts 128°
2026-04-23 06:03 23.84625 57.17846 31295 ft 527 kts 127°
2026-04-23 06:03 23.82452 57.21077 31396 ft 529 kts 127°
2026-04-23 06:03 23.80271 57.24320 31536 ft 529 kts 127°
2026-04-23 06:04 23.78091 57.27559 31697 ft 529 kts 127°
2026-04-23 06:04 23.75910 57.30796 31862 ft 530 kts 127°
2026-04-23 06:04 23.73727 57.34035 32012 ft 530 kts 128°
2026-04-23 06:04 23.71535 57.37278 32160 ft 530 kts 128°
2026-04-23 06:05 23.69286 57.40468 32303 ft 531 kts 129°
2026-04-23 06:05 23.66986 57.43616 32439 ft 531 kts 130°
2026-04-23 06:05 23.64668 57.46755 32557 ft 532 kts 130°
2026-04-23 06:05 23.62347 57.49907 32675 ft 533 kts 130°
2026-04-23 06:06 23.60038 57.53067 32815 ft 533 kts 129°
2026-04-23 06:06 23.57736 57.56238 32944 ft 534 kts 129°
2026-04-23 06:06 23.55431 57.59418 33091 ft 534 kts 129°
2026-04-23 06:06 23.53126 57.62593 33205 ft 534 kts 129°
2026-04-23 06:07 23.51134 57.65929 33214 ft 535 kts 114°
2026-04-23 06:07 23.50007 57.69777 33250 ft 534 kts 97°
2026-04-23 06:07 23.49759 57.73851 33284 ft 530 kts 82°
2026-04-23 06:08 23.51115 57.81612 33408 ft 526 kts 73°
2026-04-23 06:08 23.51890 57.85505 33526 ft 526 kts 74°
2026-04-23 06:08 23.52635 57.89404 33694 ft 526 kts 75°
2026-04-23 06:08 23.53352 57.93317 33804 ft 527 kts 75°
2026-04-23 06:09 23.54051 57.97238 33855 ft 528 kts 75°
2026-04-23 06:09 23.55442 58.05160 33866 ft 535 kts 75°
2026-04-23 06:10 23.56847 58.13162 33844 ft 539 kts 75°
2026-04-23 06:10 23.58261 58.21209 33837 ft 541 kts 75°
2026-04-23 06:11 23.59663 58.29254 33826 ft 540 kts 75°
2026-04-23 06:11 23.61013 58.37285 33824 ft 537 kts 75°
2026-04-23 06:12 23.62342 58.45267 33826 ft 534 kts 75°
2026-04-23 06:12 23.64331 58.57186 33841 ft 531 kts 75°
2026-04-23 06:13 23.65651 58.65106 33851 ft 531 kts 75°
2026-04-23 06:13 23.66965 58.73028 33855 ft 531 kts 75°
2026-04-23 06:14 23.68276 58.80951 33856 ft 531 kts 75°
2026-04-23 06:14 23.69585 58.88894 33859 ft 532 kts 75°
2026-04-23 06:15 23.70891 58.96853 33858 ft 533 kts 75°
2026-04-23 06:15 23.72194 59.04819 33866 ft 534 kts 75°
2026-04-23 06:16 23.73485 59.12736 33861 ft 534 kts 75°
2026-04-23 06:16 23.74781 59.20712 33861 ft 533 kts 75°
2026-04-23 06:17 23.76071 59.28674 33865 ft 533 kts 75°
2026-04-23 06:17 23.77356 59.36633 33866 ft 531 kts 75°
2026-04-23 06:18 23.78634 59.44577 33860 ft 530 kts 75°
2026-04-23 06:18 23.79906 59.52497 33864 ft 529 kts 75°
2026-04-23 06:19 23.81192 59.60409 33863 ft 528 kts 76°
2026-04-23 06:19 23.82476 59.68300 33868 ft 527 kts 76°
2026-04-23 06:20 23.83750 59.76182 33865 ft 527 kts 76°
2026-04-23 06:20 23.85013 59.84058 33864 ft 526 kts 76°
2026-04-23 06:21 23.86253 59.91929 33875 ft 525 kts 77°
2026-04-23 06:21 23.87481 59.99781 33863 ft 523 kts 77°
2026-04-23 06:22 23.88703 60.07609 33863 ft 522 kts 77°
2026-04-23 06:22 23.89921 60.15421 33864 ft 521 kts 77°
2026-04-23 06:23 23.91134 60.23215 33868 ft 520 kts 78°
2026-04-23 06:23 23.92340 60.31000 33864 ft 519 kts 78°
2026-04-23 06:24 23.93540 60.38776 33863 ft 519 kts 78°
2026-04-23 06:24 23.94737 60.46553 33877 ft 519 kts 78°
2026-04-23 06:25 23.95930 60.54338 33866 ft 520 kts 78°
2026-04-23 06:25 23.97122 60.62139 33866 ft 521 kts 78°
2026-04-23 06:26 23.98313 60.69962 33871 ft 522 kts 78°
2026-04-23 06:26 23.99500 60.77788 33872 ft 522 kts 78°
2026-04-23 06:27 24.00678 60.85579 33868 ft 523 kts 78°
2026-04-23 06:27 24.01858 60.93418 33875 ft 523 kts 78°
2026-04-23 06:28 24.03036 61.01267 33871 ft 523 kts 78°
2026-04-23 06:28 24.04209 61.09109 33872 ft 522 kts 77°
2026-04-23 06:29 24.05378 61.16954 33875 ft 522 kts 77°
2026-04-23 06:29 24.06541 61.24789 33870 ft 522 kts 77°
2026-04-23 06:30 24.07701 61.32626 33872 ft 521 kts 77°
2026-04-23 06:30 24.08858 61.40451 33877 ft 521 kts 77°
2026-04-23 06:31 24.10016 61.48280 33879 ft 521 kts 77°
2026-04-23 06:31 24.11168 61.56102 33878 ft 521 kts 77°
2026-04-23 06:32 24.12315 61.63929 33877 ft 520 kts 77°
2026-04-23 06:32 24.13458 61.71755 33880 ft 520 kts 77°
2026-04-23 06:33 24.14598 61.79577 33876 ft 521 kts 77°
2026-04-23 06:33 24.15692 61.87422 33877 ft 521 kts 77°
2026-04-23 06:34 24.16744 61.95270 33888 ft 521 kts 77°
2026-04-23 06:34 24.17794 62.03115 33882 ft 520 kts 77°
2026-04-23 06:35 24.18846 62.10940 33874 ft 519 kts 77°
2026-04-23 06:35 24.19896 62.18758 33881 ft 518 kts 77°
2026-04-23 06:36 24.20939 62.26560 33881 ft 517 kts 77°
2026-04-23 06:36 24.21978 62.34357 33877 ft 517 kts 77°
2026-04-23 06:37 24.23010 62.42138 33879 ft 516 kts 77°
2026-04-23 06:37 24.24038 62.49919 33880 ft 516 kts 77°
2026-04-23 06:38 24.25059 62.57689 33890 ft 515 kts 77°
2026-04-23 06:38 24.26077 62.65456 33880 ft 514 kts 77°
2026-04-23 06:39 24.27089 62.73210 33875 ft 514 kts 77°
2026-04-23 06:39 24.28090 62.80912 33878 ft 514 kts 77°
2026-04-23 06:40 24.29099 62.88707 33888 ft 513 kts 77°
2026-04-23 06:40 24.30091 62.96399 33882 ft 513 kts 77°
2026-04-23 06:41 24.31084 63.04131 33883 ft 512 kts 77°
2026-04-23 06:41 24.32072 63.11864 33884 ft 512 kts 77°
2026-04-23 06:42 24.33056 63.19585 33877 ft 511 kts 77°
2026-04-23 06:42 24.34034 63.27301 33877 ft 510 kts 77°
2026-04-23 06:43 24.35006 63.35006 33876 ft 510 kts 77°
2026-04-23 06:43 24.35976 63.42714 33875 ft 510 kts 78°
2026-04-23 06:44 24.36939 63.50413 33885 ft 509 kts 77°
2026-04-23 06:44 24.37900 63.58112 33875 ft 509 kts 77°
2026-04-23 06:45 24.38856 63.65803 33865 ft 508 kts 77°
2026-04-23 06:45 24.39799 63.73432 33868 ft 508 kts 77°
2026-04-23 06:46 24.40747 63.81120 33869 ft 509 kts 78°
2026-04-23 06:46 24.41690 63.88811 33871 ft 509 kts 78°
2026-04-23 06:47 24.42631 63.96520 33873 ft 510 kts 78°
2026-04-23 06:47 24.43568 64.04233 33866 ft 510 kts 78°
2026-04-23 06:48 24.44507 64.11971 33866 ft 512 kts 79°
2026-04-23 06:48 24.45441 64.19730 33874 ft 514 kts 79°
2026-04-23 06:49 24.46375 64.27523 33872 ft 515 kts 79°
2026-04-23 06:49 24.47150 64.34008 33872 ft 516 kts 79°
2026-04-23 06:50 24.48083 64.41835 33857 ft 518 kts 80°
2026-04-23 06:50 24.49012 64.49683 33871 ft 519 kts 80°
2026-04-23 06:51 24.49940 64.57558 33868 ft 520 kts 80°
2026-04-23 06:51 24.50866 64.65441 33865 ft 521 kts 80°
2026-04-23 06:52 24.51787 64.73328 33863 ft 521 kts 80°
2026-04-23 06:52 24.52705 64.81216 33863 ft 520 kts 80°
2026-04-23 06:53 24.53874 64.89036 33861 ft 518 kts 76°
2026-04-23 06:53 24.55231 64.96791 33863 ft 517 kts 76°
2026-04-23 06:54 24.56578 65.04563 33864 ft 519 kts 77°
2026-04-23 06:54 24.57897 65.12367 33867 ft 521 kts 77°
2026-04-23 06:55 24.59211 65.20211 33863 ft 523 kts 77°
2026-04-23 06:55 24.60527 65.28073 33862 ft 524 kts 77°
2026-04-23 06:56 24.61845 65.35962 33855 ft 526 kts 78°
2026-04-23 06:56 24.63152 65.43871 33862 ft 527 kts 78°
2026-04-23 06:57 24.64455 65.51805 33858 ft 528 kts 78°
2026-04-23 06:57 24.65754 65.59741 33857 ft 528 kts 78°
2026-04-23 06:58 24.67052 65.67686 33856 ft 528 kts 78°
2026-04-23 06:58 24.68343 65.75624 33858 ft 528 kts 78°
2026-04-23 06:59 24.69631 65.83567 33856 ft 527 kts 78°
2026-04-23 06:59 24.70913 65.91499 33858 ft 527 kts 78°
2026-04-23 07:00 24.72190 65.99430 33859 ft 526 kts 78°
2026-04-23 07:00 24.73461 66.07344 33858 ft 525 kts 78°
2026-04-23 07:01 24.74715 66.15185 33855 ft 524 kts 79°
2026-04-23 07:01 24.75972 66.23068 33854 ft 523 kts 79°
2026-04-23 07:02 24.77224 66.30951 33857 ft 523 kts 79°
2026-04-23 07:02 24.78470 66.38824 33853 ft 522 kts 79°
2026-04-23 07:03 24.79713 66.46702 33856 ft 522 kts 79°
2026-04-23 07:03 24.80951 66.54583 33852 ft 522 kts 79°
2026-04-23 07:04 24.82186 66.62463 33850 ft 523 kts 79°
2026-04-23 07:04 24.83431 66.70355 33855 ft 523 kts 79°
2026-04-23 07:05 24.84725 66.78239 33851 ft 524 kts 78°
2026-04-23 07:05 24.86023 66.86134 33851 ft 524 kts 79°
2026-04-23 07:06 24.87307 66.94029 33856 ft 524 kts 79°
2026-04-23 07:06 24.88583 67.01927 33854 ft 523 kts 79°
2026-04-23 07:07 24.89854 67.09814 33858 ft 523 kts 79°
2026-04-23 07:07 24.92024 67.17362 33861 ft 517 kts 58°
2026-04-23 07:08 24.96505 67.23367 33847 ft 509 kts 37°
2026-04-23 07:08 25.02038 67.28253 33853 ft 511 kts 37°
2026-04-23 07:09 25.07551 67.33226 33855 ft 514 kts 37°
2026-04-23 07:09 25.13050 67.38293 33847 ft 516 kts 38°
2026-04-23 07:10 25.18556 67.43385 33831 ft 517 kts 38°
2026-04-23 07:10 25.24076 67.48482 33829 ft 517 kts 37°
2026-04-23 07:11 25.29609 67.53538 33822 ft 516 kts 37°
2026-04-23 07:12 25.37897 67.61093 33821 ft 514 kts 37°
2026-04-23 07:12 25.43399 67.66127 33822 ft 513 kts 37°
2026-04-23 07:13 25.48885 67.71156 33810 ft 512 kts 37°
2026-04-23 07:13 25.54369 67.76189 33816 ft 512 kts 37°
2026-04-23 07:14 25.59846 67.81224 33811 ft 512 kts 37°
2026-04-23 07:14 25.65329 67.86267 33803 ft 512 kts 37°
2026-04-23 07:15 25.70813 67.91317 33799 ft 513 kts 37°
2026-04-23 07:15 25.76306 67.96384 33797 ft 514 kts 38°
2026-04-23 07:16 25.81799 68.01456 33791 ft 514 kts 38°
2026-04-23 07:16 25.87298 68.06541 33790 ft 514 kts 38°
2026-04-23 07:17 25.92798 68.11632 33789 ft 515 kts 38°
2026-04-23 07:17 25.98309 68.16741 34073 ft 516 kts 38°
2026-04-23 07:17 26.01058 68.19292 34342 ft 514 kts 38°
2026-04-23 07:18 26.03799 68.21838 34630 ft 512 kts 38°
2026-04-23 07:18 26.09271 68.26923 34766 ft 514 kts 38°
2026-04-23 07:19 26.14740 68.32013 34767 ft 510 kts 38°
2026-04-23 07:19 26.20236 68.36961 34771 ft 506 kts 32°
2026-04-23 07:20 26.26287 68.40867 34777 ft 500 kts 21°
2026-04-23 07:20 26.32672 68.43939 34781 ft 501 kts 20°
2026-04-23 07:21 26.39088 68.47004 34790 ft 502 kts 21°
2026-04-23 07:21 26.45467 68.50099 34783 ft 504 kts 21°
2026-04-23 07:22 26.51908 68.53254 34780 ft 506 kts 21°
2026-04-23 07:22 26.58360 68.56422 34779 ft 507 kts 21°
2026-04-23 07:23 26.64829 68.59600 34776 ft 508 kts 21°
2026-04-23 07:23 26.71297 68.62781 34776 ft 508 kts 21°
2026-04-23 07:24 26.77768 68.65966 34772 ft 508 kts 21°
2026-04-23 07:24 26.84226 68.69149 34774 ft 507 kts 21°
2026-04-23 07:25 26.90680 68.72333 34773 ft 506 kts 21°
2026-04-23 07:25 26.97120 68.75514 34775 ft 506 kts 21°
2026-04-23 07:26 27.03557 68.78699 34781 ft 505 kts 21°
2026-04-23 07:26 27.09984 68.81883 34768 ft 505 kts 21°
2026-04-23 07:27 27.16411 68.85071 34768 ft 505 kts 21°
2026-04-23 07:27 27.22828 68.88257 34774 ft 504 kts 21°
2026-04-23 07:28 27.29249 68.91449 34774 ft 504 kts 21°
2026-04-23 07:28 27.35668 68.94645 34775 ft 505 kts 22°
2026-04-23 07:29 27.42100 68.97852 34769 ft 506 kts 22°
2026-04-23 07:29 27.48532 69.01064 34770 ft 506 kts 22°
2026-04-23 07:30 27.54971 69.04293 34763 ft 507 kts 22°
2026-04-23 07:30 27.61413 69.07531 34766 ft 507 kts 22°
2026-04-23 07:31 27.67851 69.10769 34764 ft 507 kts 22°
2026-04-23 07:31 27.74293 69.14013 34763 ft 507 kts 22°
2026-04-23 07:32 27.80724 69.17257 34760 ft 506 kts 22°
2026-04-23 07:32 27.87123 69.20450 34761 ft 505 kts 19°
2026-04-23 07:33 27.93892 69.22585 34761 ft 501 kts
2026-04-23 07:33 28.00761 69.23344 34765 ft 499 kts
2026-04-23 07:34 28.07744 69.23726 34763 ft 500 kts
2026-04-23 07:34 28.14658 69.24129 34757 ft 501 kts
2026-04-23 07:35 28.21626 69.24577 34772 ft 502 kts
2026-04-23 07:35 28.28611 69.25039 34760 ft 503 kts
2026-04-23 07:36 28.35588 69.25500 34765 ft 503 kts
2026-04-23 07:36 28.41439 69.25885 34767 ft 502 kts
2026-04-23 07:37 28.48414 69.26343 34775 ft 502 kts
2026-04-23 07:37 28.55337 69.26799 34784 ft 501 kts
2026-04-23 07:38 28.62290 69.27258 34784 ft 500 kts
2026-04-23 07:38 28.69240 69.27717 34793 ft 500 kts
2026-04-23 07:39 28.76178 69.28179 34815 ft 499 kts
2026-04-23 07:39 28.83117 69.28650 34810 ft 499 kts
2026-04-23 07:40 28.90055 69.29122 34810 ft 499 kts
2026-04-23 07:40 28.96983 69.29592 34812 ft 499 kts
2026-04-23 07:41 29.03909 69.30062 34833 ft 499 kts
2026-04-23 07:41 29.10843 69.30533 34829 ft 499 kts
2026-04-23 07:42 29.17783 69.31000 34826 ft 499 kts
2026-04-23 07:42 29.24720 69.31468 34838 ft 500 kts
2026-04-23 07:43 29.31667 69.31937 34846 ft 500 kts
2026-04-23 07:43 29.38566 69.32404 34837 ft 500 kts
2026-04-23 07:44 29.45517 69.32875 34840 ft 500 kts
2026-04-23 07:44 29.52466 69.33347 34843 ft 501 kts
2026-04-23 07:45 29.59425 69.33820 34840 ft 501 kts
2026-04-23 07:45 29.66382 69.34294 34848 ft 500 kts
2026-04-23 07:46 29.73330 69.34767 34848 ft 500 kts
2026-04-23 07:46 29.80278 69.35241 34862 ft 500 kts
2026-04-23 07:47 29.87226 69.35716 34885 ft 500 kts
2026-04-23 07:47 29.94181 69.36192 34877 ft 501 kts
2026-04-23 07:48 30.01150 69.36669 34876 ft 503 kts
2026-04-23 07:48 30.08139 69.37150 34892 ft 503 kts
2026-04-23 07:49 30.15134 69.37631 34866 ft 504 kts
2026-04-23 07:49 30.22146 69.38113 34892 ft 505 kts
2026-04-23 07:50 30.29162 69.38597 34884 ft 506 kts
2026-04-23 07:50 30.36186 69.39080 34893 ft 505 kts
2026-04-23 07:51 30.43200 69.39563 34897 ft 505 kts
2026-04-23 07:51 30.50170 69.40045 34896 ft 505 kts
2026-04-23 07:52 30.57173 69.40529 34909 ft 504 kts
2026-04-23 07:52 30.64179 69.41014 34909 ft 504 kts
2026-04-23 07:53 30.71169 69.41499 34913 ft 503 kts
2026-04-23 07:53 30.78153 69.41984 34915 ft 503 kts
2026-04-23 07:54 30.85132 69.42469 34918 ft 502 kts
2026-04-23 07:54 30.92103 69.42954 34923 ft 502 kts
2026-04-23 07:55 30.99083 69.43441 34931 ft 502 kts
2026-04-23 07:55 31.06061 69.43928 34918 ft 503 kts
2026-04-23 07:56 31.13046 69.44417 34919 ft 503 kts
2026-04-23 07:56 31.20029 69.44906 34931 ft 503 kts
2026-04-23 07:57 31.27026 69.45397 34915 ft 504 kts
2026-04-23 07:57 31.33999 69.46343 34902 ft 509 kts 12°
2026-04-23 07:58 31.40583 69.49307 34906 ft 514 kts 27°
2026-04-23 07:58 31.46706 69.53655 34917 ft 515 kts 30°
2026-04-23 07:59 31.52803 69.58087 34913 ft 516 kts 30°
2026-04-23 07:59 31.58923 69.62468 34904 ft 515 kts 29°
2026-04-23 08:00 31.65063 69.66820 34898 ft 515 kts 29°
2026-04-23 08:00 31.71198 69.71167 34887 ft 515 kts 29°
2026-04-23 08:01 31.77332 69.75522 34895 ft 515 kts 29°
2026-04-23 08:01 31.83455 69.79881 34872 ft 515 kts 29°
2026-04-23 08:02 31.89578 69.84247 34864 ft 514 kts 29°
2026-04-23 08:02 31.95695 69.88616 34849 ft 514 kts 29°
2026-04-23 08:03 32.01812 69.92992 34867 ft 514 kts 29°
2026-04-23 08:03 32.07934 69.97378 34861 ft 515 kts 29°
2026-04-23 08:04 32.14065 70.01776 34857 ft 516 kts 29°
2026-04-23 08:04 32.20193 70.06181 34868 ft 516 kts 29°
2026-04-23 08:05 32.26327 70.10596 34838 ft 516 kts 30°
2026-04-23 08:05 32.32448 70.15012 34857 ft 515 kts 29°
2026-04-23 08:06 32.38578 70.19426 34857 ft 515 kts 29°
2026-04-23 08:06 32.44719 70.23705 34856 ft 516 kts 28°
2026-04-23 08:07 32.50980 70.28036 34854 ft 519 kts 28°
2026-04-23 08:07 32.57164 70.32352 34860 ft 520 kts 29°
2026-04-23 08:08 32.63405 70.36721 34845 ft 521 kts 29°
2026-04-23 08:08 32.69565 70.41262 34845 ft 520 kts 31°
2026-04-23 08:08 32.72586 70.43597 34640 ft 518 kts 31°
2026-04-23 08:09 32.75609 70.45937 34272 ft 520 kts 31°
2026-04-23 08:09 32.78653 70.48277 33909 ft 521 kts 31°
2026-04-23 08:09 32.81704 70.50606 33846 ft 521 kts 31°
2026-04-23 08:10 32.87786 70.55235 33812 ft 517 kts 31°
2026-04-23 08:10 32.97842 70.59218 33845 ft 512 kts 360°
2026-04-23 08:11 33.04900 70.58691 33849 ft 509 kts 351°
2026-04-23 08:11 33.11982 70.57885 33859 ft 512 kts 351°
2026-04-23 08:12 33.19073 70.57157 33869 ft 511 kts 352°
2026-04-23 08:12 33.26136 70.56481 33848 ft 507 kts 352°
2026-04-23 08:13 33.33142 70.55817 33863 ft 504 kts 352°
2026-04-23 08:13 33.40113 70.55149 33891 ft 501 kts 352°
2026-04-23 08:14 33.47049 70.54481 33893 ft 500 kts 352°
2026-04-23 08:14 33.53970 70.53813 33945 ft 498 kts 352°
2026-04-23 08:15 33.60815 70.53152 33955 ft 496 kts 352°
2026-04-23 08:15 33.67694 70.52486 33996 ft 495 kts 352°
2026-04-23 08:16 33.74555 70.51822 33992 ft 494 kts 352°
2026-04-23 08:16 33.81410 70.51156 34000 ft 494 kts 352°
2026-04-23 08:17 33.88241 70.50389 33987 ft 489 kts 344°
2026-04-23 08:17 33.91407 70.49048 33979 ft 480 kts 326°
2026-04-23 08:17 33.94069 70.46702 34008 ft 471 kts 312°
2026-04-23 08:18 33.96189 70.43740 33988 ft 464 kts 299°
2026-04-23 08:18 33.97748 70.40371 34003 ft 460 kts 294°
2026-04-23 08:18 34.00667 70.33469 34003 ft 464 kts 294°
2026-04-23 08:19 34.03642 70.26544 33988 ft 467 kts 294°
2026-04-23 08:19 34.06681 70.19596 34008 ft 469 kts 295°
2026-04-23 08:20 34.09729 70.12642 34008 ft 468 kts 295°
2026-04-23 08:20 34.12767 70.05694 33999 ft 467 kts 294°
2026-04-23 08:21 34.15784 69.98777 34005 ft 465 kts 294°
2026-04-23 08:21 34.18783 69.91880 34006 ft 462 kts 294°
2026-04-23 08:22 34.21751 69.85022 34008 ft 460 kts 294°
2026-04-23 08:22 34.24709 69.78168 34029 ft 460 kts 293°
2026-04-23 08:23 34.27671 69.71291 34016 ft 462 kts 293°
2026-04-23 08:23 34.30640 69.64382 34030 ft 464 kts 293°
2026-04-23 08:24 34.33613 69.57457 34010 ft 464 kts 293°
2026-04-23 08:24 34.36081 69.51695 34026 ft 464 kts 293°
2026-04-23 08:25 34.39042 69.44773 34011 ft 463 kts 293°
2026-04-23 08:25 34.42001 69.37833 34011 ft 464 kts 293°
2026-04-23 08:26 34.44959 69.30887 34006 ft 464 kts 292°
2026-04-23 08:26 34.47915 69.23933 34011 ft 463 kts 292°
2026-04-23 08:27 34.51236 69.17231 33994 ft 471 kts 305°
2026-04-23 08:27 34.56197 69.11929 34003 ft 485 kts 323°
2026-04-23 08:28 34.62185 69.08045 34028 ft 489 kts 327°
2026-04-23 08:28 34.68248 69.04258 34022 ft 491 kts 326°
2026-04-23 08:29 34.74305 69.00398 34029 ft 491 kts 326°
2026-04-23 08:29 34.80298 68.96526 34052 ft 491 kts 326°
2026-04-23 08:30 34.86371 68.92569 34062 ft 492 kts 326°
2026-04-23 08:30 34.92381 68.88659 34079 ft 493 kts 325°
2026-04-23 08:31 34.98440 68.84707 34126 ft 494 kts 324°
2026-04-23 08:31 35.04513 68.80737 34112 ft 496 kts 325°
2026-04-23 08:32 35.10604 68.76757 34111 ft 496 kts 325°
2026-04-23 08:32 35.16691 68.72770 34119 ft 497 kts 324°
2026-04-23 08:33 35.22776 68.68785 34106 ft 495 kts 324°
2026-04-23 08:33 35.28817 68.64820 34133 ft 492 kts 324°
2026-04-23 08:34 35.34843 68.60852 34094 ft 489 kts 325°
2026-04-23 08:34 35.40838 68.56876 34107 ft 491 kts 325°
2026-04-23 08:35 35.46885 68.52883 34061 ft 495 kts 325°
2026-04-23 08:35 35.52950 68.48880 34083 ft 494 kts 325°
2026-04-23 08:36 35.58996 68.44878 34095 ft 492 kts 324°
2026-04-23 08:36 35.65010 68.40855 34068 ft 492 kts 324°
2026-04-23 08:37 35.71028 68.36819 34060 ft 492 kts 324°
2026-04-23 08:37 35.77039 68.32780 34071 ft 492 kts 324°
2026-04-23 08:38 35.83046 68.28748 34060 ft 490 kts 324°
2026-04-23 08:38 35.89015 68.24730 34063 ft 488 kts 324°
2026-04-23 08:39 35.94935 68.20735 34053 ft 489 kts 324°
2026-04-23 08:39 36.00910 68.16694 34058 ft 491 kts 325°
2026-04-23 08:40 36.06926 68.12619 34061 ft 494 kts 325°
2026-04-23 08:40 36.12975 68.08516 34076 ft 498 kts 324°
2026-04-23 08:41 36.19079 68.04366 34043 ft 503 kts 324°
2026-04-23 08:41 36.25217 68.00189 34031 ft 504 kts 324°
2026-04-23 08:42 36.31357 67.96007 34031 ft 503 kts 324°
2026-04-23 08:42 36.37481 67.91822 34049 ft 503 kts 324°
2026-04-23 08:43 36.43611 67.87627 34027 ft 502 kts 324°
2026-04-23 08:43 36.49717 67.83443 34021 ft 501 kts 324°
2026-04-23 08:44 36.55808 67.79259 34036 ft 499 kts 323°
2026-04-23 08:44 36.61881 67.75074 34022 ft 498 kts 323°
2026-04-23 08:45 36.67946 67.70896 34011 ft 498 kts 323°
2026-04-23 08:45 36.74000 67.66718 34025 ft 497 kts 323°
2026-04-23 08:46 36.80005 67.62585 34010 ft 496 kts 323°
2026-04-23 08:46 36.86050 67.58420 34008 ft 497 kts 323°
2026-04-23 08:47 36.92103 67.54238 34029 ft 497 kts 323°
2026-04-23 08:47 36.98163 67.50042 34007 ft 498 kts 323°
2026-04-23 08:48 37.04217 67.45844 34006 ft 497 kts 323°
2026-04-23 08:48 37.10268 67.41640 34000 ft 497 kts 323°
2026-04-23 08:49 37.16305 67.37437 33998 ft 497 kts 323°
2026-04-23 08:49 37.22337 67.33212 33998 ft 495 kts 322°
2026-04-23 08:50 37.28222 67.28769 34025 ft 493 kts 320°
2026-04-23 08:50 37.34060 67.24234 34043 ft 494 kts 320°
2026-04-23 08:51 37.39913 67.19716 34033 ft 494 kts 320°
2026-04-23 08:51 37.45783 67.15214 34014 ft 494 kts 320°
2026-04-23 08:52 37.51641 67.10722 34045 ft 493 kts 320°
2026-04-23 08:52 37.57496 67.06221 34018 ft 493 kts 320°
2026-04-23 08:53 37.63338 67.01720 34019 ft 492 kts 320°
2026-04-23 08:53 37.69139 66.97241 34019 ft 492 kts 320°
2026-04-23 08:54 37.74971 66.92730 34033 ft 492 kts 320°
2026-04-23 08:54 37.80807 66.88207 34043 ft 492 kts 320°
2026-04-23 08:55 37.86644 66.83675 34042 ft 493 kts 320°
2026-04-23 08:55 37.92490 66.79128 34051 ft 494 kts 319°
2026-04-23 08:56 37.98352 66.74558 34057 ft 496 kts 320°
2026-04-23 08:56 38.04232 66.69956 34055 ft 496 kts 319°
2026-04-23 08:57 38.10083 66.65305 34057 ft 497 kts 319°
2026-04-23 08:57 38.15937 66.60632 34047 ft 497 kts 319°
2026-04-23 08:58 38.21790 66.55958 34074 ft 497 kts 319°
2026-04-23 08:58 38.27642 66.51284 34072 ft 496 kts 319°
2026-04-23 08:59 38.33471 66.46620 34042 ft 494 kts 319°
2026-04-23 08:59 38.39283 66.41957 34036 ft 493 kts 319°
2026-04-23 09:00 38.45073 66.37301 34037 ft 492 kts 319°
2026-04-23 09:00 38.50824 66.32668 34045 ft 492 kts 319°
2026-04-23 09:01 38.56607 66.28000 34031 ft 492 kts 319°
2026-04-23 09:01 38.62392 66.23326 34046 ft 492 kts 320°
2026-04-23 09:02 38.68202 66.18717 34027 ft 491 kts 320°
2026-04-23 09:02 38.74025 66.14141 34034 ft 490 kts 320°
2026-04-23 09:03 38.79833 66.09560 34040 ft 490 kts 320°
2026-04-23 09:03 38.85627 66.04967 34047 ft 490 kts 320°
2026-04-23 09:04 38.91426 66.00357 34046 ft 490 kts 320°
2026-04-23 09:04 38.97220 65.95742 34041 ft 490 kts 320°
2026-04-23 09:05 39.03021 65.91114 34052 ft 491 kts 321°
2026-04-23 09:05 39.08818 65.86480 34044 ft 490 kts 321°
2026-04-23 09:06 39.14611 65.81840 34039 ft 490 kts 321°
2026-04-23 09:06 39.20394 65.77199 34046 ft 490 kts 320°
2026-04-23 09:07 39.26140 65.72579 34033 ft 489 kts 320°
2026-04-23 09:07 39.31913 65.67927 34030 ft 489 kts 320°
2026-04-23 09:08 39.37686 65.63267 34043 ft 489 kts 320°
2026-04-23 09:08 39.43450 65.58605 34056 ft 489 kts 320°
2026-04-23 09:09 39.49211 65.53937 34046 ft 488 kts 320°
2026-04-23 09:09 39.54954 65.49273 34055 ft 487 kts 320°
2026-04-23 09:10 39.63561 65.42265 34056 ft 487 kts 320°
2026-04-23 09:11 39.69293 65.37586 34056 ft 487 kts 320°
2026-04-23 09:11 39.75034 65.32890 34061 ft 488 kts 320°
2026-04-23 09:12 39.80773 65.28189 34067 ft 488 kts 321°
2026-04-23 09:12 39.86512 65.23478 34055 ft 487 kts 320°
2026-04-23 09:13 39.92241 65.18764 34059 ft 487 kts 321°
2026-04-23 09:13 39.97969 65.14043 34054 ft 487 kts 321°
2026-04-23 09:14 40.03687 65.09321 34058 ft 486 kts 320°
2026-04-23 09:14 40.08430 65.05396 34084 ft 486 kts 320°
2026-04-23 09:15 40.15064 64.99895 34067 ft 486 kts 320°
2026-04-23 09:15 40.19837 64.95929 34083 ft 485 kts 320°
2026-04-23 09:16 40.25534 64.91187 34066 ft 485 kts 320°
2026-04-23 09:16 40.31219 64.86445 34057 ft 484 kts 320°
2026-04-23 09:17 40.36903 64.81696 34051 ft 484 kts 320°
2026-04-23 09:17 40.42576 64.76944 34043 ft 484 kts 320°
2026-04-23 09:18 40.48254 64.72179 34049 ft 484 kts 320°
2026-04-23 09:18 40.53928 64.67408 34046 ft 484 kts 320°
2026-04-23 09:19 40.59611 64.62618 34047 ft 486 kts 320°
2026-04-23 09:19 40.65298 64.57816 34042 ft 486 kts 320°
2026-04-23 09:20 40.70954 64.53031 34032 ft 486 kts 320°
2026-04-23 09:20 40.76643 64.48209 34039 ft 486 kts 320°
2026-04-23 09:21 40.82335 64.43374 34031 ft 486 kts 320°
2026-04-23 09:21 40.88016 64.38538 34032 ft 486 kts 320°
2026-04-23 09:22 40.93702 64.33686 34032 ft 486 kts 321°
2026-04-23 09:22 40.99380 64.28833 34027 ft 486 kts 320°
2026-04-23 09:23 41.05054 64.23972 34041 ft 485 kts 320°
2026-04-23 09:23 41.10720 64.19108 34031 ft 485 kts 320°
2026-04-23 09:24 41.16389 64.14231 34025 ft 485 kts 320°
2026-04-23 09:24 41.22052 64.09349 34041 ft 486 kts 320°
2026-04-23 09:25 41.27725 64.04447 34043 ft 487 kts 321°
2026-04-23 09:25 41.33401 63.99533 34026 ft 487 kts 321°
2026-04-23 09:26 41.39085 63.94603 34034 ft 488 kts 321°
2026-04-23 09:26 41.44768 63.89666 34020 ft 488 kts 321°
2026-04-23 09:27 41.50453 63.84718 34023 ft 488 kts 321°
2026-04-23 09:27 41.56128 63.79766 34031 ft 488 kts 321°
2026-04-23 09:28 41.61808 63.74798 34023 ft 488 kts 321°
2026-04-23 09:28 41.67485 63.69824 34018 ft 487 kts 321°
2026-04-23 09:29 41.73110 63.64883 34024 ft 487 kts 321°
2026-04-23 09:29 41.78767 63.59904 34014 ft 486 kts 321°
2026-04-23 09:30 41.84420 63.54918 34030 ft 486 kts 322°
2026-04-23 09:30 41.90066 63.49927 34021 ft 486 kts 322°
2026-04-23 09:31 41.95701 63.44936 34018 ft 485 kts 322°
2026-04-23 09:31 42.01329 63.39940 34017 ft 485 kts 322°
2026-04-23 09:32 42.06957 63.34932 34013 ft 485 kts 321°
2026-04-23 09:32 42.12581 63.29917 34018 ft 485 kts 321°
2026-04-23 09:33 42.18199 63.24897 34020 ft 485 kts 322°
2026-04-23 09:33 42.23820 63.19864 34017 ft 485 kts 322°
2026-04-23 09:34 42.29430 63.14829 34002 ft 484 kts 322°
2026-04-23 09:34 42.35039 63.09784 34007 ft 484 kts 322°
2026-04-23 09:35 42.40634 63.04742 34008 ft 483 kts 322°
2026-04-23 09:35 42.46225 62.99696 34004 ft 483 kts 322°
2026-04-23 09:36 42.51800 62.94653 34010 ft 482 kts 322°
2026-04-23 09:36 42.57370 62.89603 34002 ft 481 kts 322°
2026-04-23 09:37 42.62923 62.84557 34017 ft 480 kts 322°
2026-04-23 09:37 42.68470 62.79505 33999 ft 480 kts 322°
2026-04-23 09:38 42.74003 62.74455 33997 ft 479 kts 322°
2026-04-23 09:38 42.79534 62.69396 34007 ft 479 kts 323°
2026-04-23 09:39 42.85059 62.64331 33999 ft 479 kts 323°
2026-04-23 09:39 42.90553 62.59283 33996 ft 479 kts 323°
2026-04-23 09:40 42.96116 62.54161 34012 ft 479 kts 323°
2026-04-23 09:40 43.01612 62.49090 33992 ft 480 kts 323°
2026-04-23 09:41 43.07138 62.43980 33991 ft 480 kts 323°
2026-04-23 09:41 43.12665 62.38858 34001 ft 480 kts 323°
2026-04-23 09:42 43.18183 62.33731 33985 ft 479 kts 323°
2026-04-23 09:42 43.23700 62.28595 33986 ft 479 kts 322°
2026-04-23 09:43 43.29206 62.23458 33991 ft 479 kts 322°
2026-04-23 09:43 43.34709 62.18310 33983 ft 478 kts 322°
2026-04-23 09:44 43.40201 62.13162 33983 ft 478 kts 322°
2026-04-23 09:44 43.45728 62.08070 33989 ft 479 kts 326°
2026-04-23 09:45 43.51709 62.03945 33988 ft 482 kts 332°
2026-04-23 09:45 43.57814 62.00094 33977 ft 482 kts 332°
2026-04-23 09:46 43.63900 61.96208 33977 ft 482 kts 332°
2026-04-23 09:46 43.69973 61.92276 33974 ft 482 kts 331°
2026-04-23 09:47 43.76037 61.88327 33973 ft 481 kts 331°
2026-04-23 09:47 43.82093 61.84376 33975 ft 482 kts 331°
2026-04-23 09:48 43.88157 61.80414 33971 ft 482 kts 331°
2026-04-23 09:48 43.94216 61.76446 33967 ft 482 kts 331°
2026-04-23 09:49 44.00282 61.72465 33959 ft 482 kts 331°
2026-04-23 09:49 44.06344 61.68477 33971 ft 482 kts 331°
2026-04-23 09:50 44.12412 61.64475 33974 ft 483 kts 331°
2026-04-23 09:50 44.18438 61.60497 33966 ft 483 kts 332°
2026-04-23 09:51 44.24513 61.56487 33962 ft 483 kts 332°
2026-04-23 09:51 44.30580 61.52474 33968 ft 483 kts 332°
2026-04-23 09:52 44.36649 61.48450 33978 ft 483 kts 331°
2026-04-23 09:52 44.42708 61.44421 33966 ft 482 kts 331°
2026-04-23 09:53 44.48765 61.40384 33962 ft 482 kts 331°
2026-04-23 09:53 44.54809 61.36347 33970 ft 481 kts 331°
2026-04-23 09:54 44.60852 61.32301 33962 ft 481 kts 331°
2026-04-23 09:54 44.66884 61.28253 33967 ft 481 kts 331°
2026-04-23 09:55 44.72919 61.24194 33969 ft 481 kts 331°
2026-04-23 09:55 44.78951 61.20127 33961 ft 481 kts 331°
2026-04-23 09:56 44.84986 61.16048 33966 ft 481 kts 331°
2026-04-23 09:56 44.91017 61.11963 33966 ft 481 kts 330°
2026-04-23 09:57 44.97059 61.07861 33965 ft 482 kts 330°
2026-04-23 09:57 45.03098 61.03751 33964 ft 482 kts 330°
2026-04-23 09:58 45.09145 60.99626 33970 ft 483 kts 330°
2026-04-23 09:58 45.15191 60.95492 33963 ft 483 kts 330°
2026-04-23 09:59 45.21242 60.91344 33965 ft 483 kts 330°
2026-04-23 09:59 45.27290 60.87189 33974 ft 483 kts 330°
2026-04-23 10:00 45.33328 60.83030 33962 ft 482 kts 330°
2026-04-23 10:00 45.39350 60.78841 33965 ft 480 kts 327°
2026-04-23 10:01 45.44830 60.73677 33965 ft 473 kts 316°
2026-04-23 10:01 45.49710 60.67442 33971 ft 471 kts 314°
2026-04-23 10:02 45.54546 60.61145 33962 ft 471 kts 314°
2026-04-23 10:02 45.58580 60.55924 33985 ft 471 kts 314°
2026-04-23 10:03 45.63448 60.49647 33966 ft 471 kts 314°
2026-04-23 10:03 45.68310 60.43375 33964 ft 471 kts 314°
2026-04-23 10:04 45.73165 60.37096 33963 ft 470 kts 314°
2026-04-23 10:04 45.78009 60.30814 33971 ft 469 kts 314°
2026-04-23 10:05 45.82838 60.24535 33965 ft 468 kts 313°
2026-04-23 10:05 45.87658 60.18251 33961 ft 468 kts 313°
2026-04-23 10:06 45.92464 60.11971 33979 ft 467 kts 313°
2026-04-23 10:06 45.97265 60.05682 33969 ft 467 kts 313°
2026-04-23 10:07 46.02054 59.99393 33959 ft 466 kts 313°
2026-04-23 10:07 46.06838 59.93096 33955 ft 466 kts 313°
2026-04-23 10:08 46.11610 59.86799 33949 ft 465 kts 313°
2026-04-23 10:08 46.16377 59.80492 33943 ft 465 kts 313°
2026-04-23 10:09 46.23504 59.71026 33941 ft 463 kts 312°
2026-04-23 10:09 46.28103 59.64529 33949 ft 462 kts 310°
2026-04-23 10:10 46.32641 59.57936 33941 ft 462 kts 310°
2026-04-23 10:10 46.37186 59.51350 33942 ft 463 kts 310°
2026-04-23 10:11 46.41715 59.44812 33956 ft 463 kts 310°
2026-04-23 10:11 46.46284 59.38213 33937 ft 464 kts 310°
2026-04-23 10:12 46.50851 59.31601 33925 ft 464 kts 310°
2026-04-23 10:12 46.55409 59.24986 33926 ft 463 kts 310°
2026-04-23 10:13 46.59967 59.18353 33932 ft 464 kts 310°
2026-04-23 10:13 46.64520 59.11708 33924 ft 464 kts 309°
2026-04-23 10:14 46.69075 59.05044 33919 ft 464 kts 309°
2026-04-23 10:14 46.73623 58.98374 33931 ft 464 kts 309°
2026-04-23 10:15 46.78172 58.91685 33912 ft 464 kts 309°
2026-04-23 10:15 46.82716 58.84987 33919 ft 464 kts 309°
2026-04-23 10:16 46.87260 58.78273 33915 ft 464 kts 309°
2026-04-23 10:16 46.91794 58.71556 33913 ft 465 kts 309°
2026-04-23 10:17 46.96330 58.64817 33926 ft 464 kts 309°
2026-04-23 10:17 47.00860 58.58071 33905 ft 465 kts 309°
2026-04-23 10:18 47.05388 58.51310 33909 ft 464 kts 309°
2026-04-23 10:18 47.09908 58.44544 33906 ft 464 kts 309°
2026-04-23 10:19 47.14428 58.37761 33910 ft 464 kts 309°
2026-04-23 10:19 47.18939 58.30971 33908 ft 464 kts 309°
2026-04-23 10:20 47.23424 58.24204 33925 ft 465 kts 308°
2026-04-23 10:20 47.27968 58.17332 33906 ft 465 kts 308°
2026-04-23 10:21 47.32452 58.10536 33905 ft 465 kts 308°
2026-04-23 10:21 47.36957 58.03702 33903 ft 464 kts 308°
2026-04-23 10:22 47.41456 57.96859 33915 ft 464 kts 308°
2026-04-23 10:22 47.45940 57.90018 33897 ft 463 kts 308°
2026-04-23 10:23 47.50410 57.83181 33901 ft 462 kts 308°
2026-04-23 10:23 47.54860 57.76354 33899 ft 461 kts 308°
2026-04-23 10:24 47.59306 57.69516 33902 ft 461 kts 307°
2026-04-23 10:24 47.63742 57.62678 33895 ft 460 kts 307°
2026-04-23 10:25 47.68168 57.55825 33892 ft 459 kts 307°
2026-04-23 10:25 47.72583 57.48963 33926 ft 459 kts 307°
2026-04-23 10:26 47.76996 57.42088 33893 ft 460 kts 307°
2026-04-23 10:26 47.81407 57.35197 33887 ft 460 kts 307°
2026-04-23 10:27 47.85811 57.28301 33893 ft 460 kts 306°
2026-04-23 10:27 47.90214 57.21387 33904 ft 460 kts 306°
2026-04-23 10:28 47.94616 57.14457 33883 ft 461 kts 306°
2026-04-23 10:28 47.99020 57.07504 33882 ft 461 kts 306°
2026-04-23 10:29 48.03419 57.00542 33878 ft 461 kts 306°
2026-04-23 10:29 48.07819 56.93561 33878 ft 462 kts 305°
2026-04-23 10:30 48.12216 56.86563 33874 ft 462 kts 305°
2026-04-23 10:30 48.16611 56.79552 33874 ft 461 kts 305°
2026-04-23 10:31 48.20995 56.72538 33868 ft 461 kts 305°
2026-04-23 10:31 48.25377 56.65510 33883 ft 461 kts 304°
2026-04-23 10:32 48.29752 56.58469 33869 ft 461 kts 304°
2026-04-23 10:32 48.34127 56.51415 33873 ft 461 kts 304°
2026-04-23 10:33 48.38492 56.44359 33873 ft 461 kts 304°
2026-04-23 10:33 48.42829 56.37325 33886 ft 462 kts 304°
2026-04-23 10:34 48.47196 56.30223 33888 ft 462 kts 304°
2026-04-23 10:34 48.51568 56.23098 33877 ft 463 kts 304°
2026-04-23 10:35 48.55956 56.15928 33907 ft 462 kts 304°
2026-04-23 10:35 48.60271 56.08864 33896 ft 458 kts 304°
2026-04-23 10:36 48.64569 56.01806 33879 ft 455 kts 304°
2026-04-23 10:36 48.68832 55.94785 33897 ft 452 kts 304°
2026-04-23 10:37 48.73081 55.87793 33902 ft 451 kts 304°
2026-04-23 10:37 48.77330 55.80792 33907 ft 451 kts 304°
2026-04-23 10:38 48.81575 55.73778 33905 ft 452 kts 304°
2026-04-23 10:38 48.85830 55.66725 33913 ft 453 kts 303°
2026-04-23 10:39 48.90085 55.59629 33963 ft 454 kts 303°
2026-04-23 10:39 48.94334 55.52515 33918 ft 454 kts 303°
2026-04-23 10:40 48.98571 55.45405 33914 ft 452 kts 303°
2026-04-23 10:40 49.02786 55.38311 33912 ft 451 kts 303°
2026-04-23 10:41 49.06989 55.31218 33963 ft 450 kts 302°
2026-04-23 10:41 49.11176 55.24131 33924 ft 449 kts 302°
2026-04-23 10:42 49.15349 55.17053 33914 ft 447 kts 302°
2026-04-23 10:42 49.19500 55.09994 33922 ft 446 kts 302°
2026-04-23 10:43 49.23641 55.02926 33966 ft 446 kts 302°
2026-04-23 10:43 49.27786 54.95828 33916 ft 448 kts 302°
2026-04-23 10:44 49.31910 54.88751 33912 ft 448 kts 302°
2026-04-23 10:44 49.36058 54.81614 33913 ft 448 kts 302°
2026-04-23 10:45 49.40207 54.74455 33959 ft 449 kts 302°
2026-04-23 10:45 49.44365 54.67257 33911 ft 451 kts 302°
2026-04-23 10:46 49.48536 54.60019 33906 ft 452 kts 302°
2026-04-23 10:46 49.52707 54.52763 33892 ft 453 kts 302°
2026-04-23 10:47 49.56882 54.45480 33927 ft 453 kts 302°
2026-04-23 10:47 49.61059 54.38168 33891 ft 455 kts 302°
2026-04-23 10:48 49.65246 54.30821 33878 ft 456 kts 302°
2026-04-23 10:48 49.69433 54.23455 33875 ft 457 kts 302°
2026-04-23 10:49 49.72913 54.17315 33869 ft 457 kts 302°
2026-04-23 10:49 49.77100 54.09908 33864 ft 458 kts 302°
2026-04-23 10:50 49.81292 54.02470 33863 ft 459 kts 302°
2026-04-23 10:50 49.85480 53.95019 33849 ft 459 kts 302°
2026-04-23 10:51 49.89668 53.87550 33852 ft 459 kts 302°
2026-04-23 10:51 49.93852 53.80058 33850 ft 460 kts 303°
2026-04-23 10:52 49.98045 53.72532 33840 ft 461 kts 303°
2026-04-23 10:52 50.02235 53.64991 33836 ft 461 kts 303°
2026-04-23 10:53 50.06425 53.57426 33832 ft 461 kts 302°
2026-04-23 10:53 50.10614 53.49835 33817 ft 464 kts 303°
2026-04-23 10:54 50.14821 53.42194 33819 ft 465 kts 303°
2026-04-23 10:54 50.19029 53.34529 33832 ft 466 kts 303°
2026-04-23 10:55 50.23242 53.26834 33817 ft 466 kts 303°
2026-04-23 10:55 50.27452 53.19117 33819 ft 467 kts 303°
2026-04-23 10:56 50.31644 53.11412 33811 ft 468 kts 303°
2026-04-23 10:56 50.35863 53.03635 33810 ft 469 kts 303°
2026-04-23 10:57 50.40079 52.95841 33808 ft 469 kts 303°
2026-04-23 10:57 50.44285 52.88040 33805 ft 468 kts 303°
2026-04-23 10:58 50.48487 52.80222 33796 ft 468 kts 303°
2026-04-23 10:58 50.52677 52.72405 33794 ft 468 kts 303°
2026-04-23 10:59 50.56861 52.64573 33794 ft 467 kts 303°
2026-04-23 10:59 50.61036 52.56731 33793 ft 468 kts 303°
2026-04-23 11:00 50.65214 52.48867 33786 ft 468 kts 303°
2026-04-23 11:00 50.69381 52.40999 33791 ft 468 kts 303°
2026-04-23 11:01 50.73570 52.33133 33779 ft 468 kts 304°
2026-04-23 11:01 50.77765 52.25264 33785 ft 469 kts 304°
2026-04-23 11:02 50.81960 52.17366 33765 ft 469 kts 304°
2026-04-23 11:02 50.86143 52.09458 33779 ft 469 kts 304°
2026-04-23 11:03 50.90325 52.01524 33759 ft 469 kts 304°
2026-04-23 11:03 50.94497 51.93584 33765 ft 469 kts 304°
2026-04-23 11:04 50.98668 51.85623 33755 ft 469 kts 304°
2026-04-23 11:04 51.02826 51.77663 33759 ft 468 kts 304°
2026-04-23 11:05 51.06979 51.69686 33753 ft 468 kts 304°
2026-04-23 11:05 51.11098 51.61752 33762 ft 469 kts 304°
2026-04-23 11:06 51.18181 51.50814 33775 ft 481 kts 318°
2026-04-23 11:07 51.23768 51.44869 33779 ft 483 kts 321°
2026-04-23 11:07 51.29405 51.39008 33782 ft 484 kts 321°
2026-04-23 11:08 51.35024 51.33055 33744 ft 485 kts 321°
2026-04-23 11:08 51.40630 51.27062 33739 ft 485 kts 321°
2026-04-23 11:09 51.46245 51.21054 33728 ft 485 kts 321°
2026-04-23 11:09 51.51885 51.15090 33736 ft 486 kts 321°
2026-04-23 11:10 51.57536 51.09108 33719 ft 486 kts 321°
2026-04-23 11:10 51.63173 51.03117 33725 ft 486 kts 322°
2026-04-23 11:11 51.69237 50.98118 33725 ft 494 kts 333°
2026-04-23 11:11 51.75848 50.94852 33725 ft 500 kts 341°
2026-04-23 11:12 51.82597 50.92118 33714 ft 500 kts 341°
2026-04-23 11:12 51.89310 50.89241 33710 ft 498 kts 339°
2026-04-23 11:13 51.95585 50.84844 33712 ft 487 kts 324°
2026-04-23 11:13 52.00966 50.78359 33724 ft 480 kts 314°
2026-04-23 11:14 52.05931 50.71212 33704 ft 480 kts 314°
2026-04-23 11:14 52.10933 50.64022 33691 ft 480 kts 314°
2026-04-23 11:15 52.15964 50.56854 33713 ft 480 kts 314°
2026-04-23 11:15 52.21035 50.49638 33700 ft 481 kts 315°
2026-04-23 11:16 52.26033 50.42504 33691 ft 481 kts 315°
2026-04-23 11:16 52.31058 50.35306 33690 ft 480 kts 315°
2026-04-23 11:17 52.36078 50.28089 33687 ft 480 kts 315°
2026-04-23 11:17 52.41093 50.20857 33673 ft 480 kts 315°
2026-04-23 11:18 52.46099 50.13615 33674 ft 480 kts 314°
2026-04-23 11:18 52.51101 50.06357 33674 ft 480 kts 314°
2026-04-23 11:19 52.55808 49.98676 33684 ft 475 kts 306°
2026-04-23 11:19 52.59561 49.89816 33667 ft 470 kts 296°
2026-04-23 11:20 52.62656 49.80360 33662 ft 470 kts 295°
2026-04-23 11:20 52.65722 49.70857 33646 ft 470 kts 295°
2026-04-23 11:21 52.68783 49.61436 33653 ft 470 kts 295°
2026-04-23 11:21 52.71877 49.51939 33658 ft 470 kts 295°
2026-04-23 11:22 52.74967 49.42429 33643 ft 471 kts 295°
2026-04-23 11:22 52.78052 49.32892 33648 ft 471 kts 295°
2026-04-23 11:23 52.81127 49.23345 33641 ft 471 kts 295°
2026-04-23 11:23 52.84198 49.13775 33638 ft 471 kts 295°
2026-04-23 11:24 52.87260 49.04193 33642 ft 471 kts 295°
2026-04-23 11:24 52.90320 48.94581 33638 ft 472 kts 295°
2026-04-23 11:25 52.93372 48.84960 33628 ft 472 kts 295°
2026-04-23 11:25 52.96416 48.75318 33623 ft 472 kts 295°
2026-04-23 11:26 52.99448 48.65667 33635 ft 472 kts 295°
2026-04-23 11:26 53.02479 48.55985 33611 ft 472 kts 295°
2026-04-23 11:27 53.05501 48.46295 33614 ft 472 kts 295°
2026-04-23 11:27 53.08521 48.36588 33606 ft 473 kts 296°
2026-04-23 11:28 53.12195 48.27487 33608 ft 476 kts 306°
2026-04-23 11:28 53.16770 48.19447 33592 ft 480 kts 313°
2026-04-23 11:29 53.21647 48.11794 33723 ft 483 kts 314°
2026-04-23 11:29 53.24089 48.07948 34031 ft 482 kts 314°
2026-04-23 11:29 53.26516 48.04095 34370 ft 481 kts 313°
2026-04-23 11:29 53.28930 48.00234 34695 ft 480 kts 313°
2026-04-23 11:30 53.31335 47.96369 34995 ft 479 kts 313°
2026-04-23 11:30 53.33735 47.92498 35265 ft 480 kts 313°
2026-04-23 11:30 53.36108 47.88664 35464 ft 481 kts 313°
2026-04-23 11:31 53.40939 47.80844 35568 ft 483 kts 313°
2026-04-23 11:31 53.45757 47.73030 35547 ft 480 kts 313°
2026-04-23 11:32 53.50540 47.65246 35553 ft 478 kts 313°
2026-04-23 11:32 53.55307 47.57474 35534 ft 477 kts 313°
2026-04-23 11:33 53.60069 47.49683 35541 ft 478 kts 313°
2026-04-23 11:33 53.64833 47.41860 35538 ft 479 kts 313°
2026-04-23 11:34 53.69607 47.33995 35532 ft 480 kts 313°
2026-04-23 11:34 53.74389 47.26091 35521 ft 482 kts 313°
2026-04-23 11:35 53.79181 47.18143 35516 ft 483 kts 313°
2026-04-23 11:35 53.83969 47.10156 35512 ft 484 kts 313°
2026-04-23 11:36 53.88755 47.02140 35511 ft 484 kts 312°
2026-04-23 11:36 53.93537 46.94106 35506 ft 484 kts 312°
2026-04-23 11:37 53.98313 46.86054 35501 ft 484 kts 312°
2026-04-23 11:37 54.03052 46.78040 35505 ft 484 kts 312°
2026-04-23 11:38 54.07819 46.69965 35498 ft 483 kts 312°
2026-04-23 11:38 54.12581 46.61877 35500 ft 483 kts 312°
2026-04-23 11:39 54.17330 46.53781 35491 ft 483 kts 312°
2026-04-23 11:39 54.21303 46.46985 35493 ft 482 kts 312°
2026-04-23 11:40 54.26009 46.38907 35485 ft 483 kts 312°
2026-04-23 11:40 54.30739 46.30762 35494 ft 482 kts 312°
2026-04-23 11:41 54.35467 46.22591 35483 ft 483 kts 312°
2026-04-23 11:41 54.40190 46.14403 35483 ft 483 kts 311°
2026-04-23 11:42 54.44917 46.06175 35471 ft 484 kts 311°
2026-04-23 11:42 54.49632 45.97924 35483 ft 484 kts 311°
2026-04-23 11:43 54.54346 45.89646 35468 ft 484 kts 311°
2026-04-23 11:43 54.59056 45.81349 35463 ft 484 kts 311°
2026-04-23 11:44 54.63760 45.73032 35464 ft 484 kts 311°
2026-04-23 11:44 54.68459 45.64693 35480 ft 484 kts 311°
2026-04-23 11:45 54.73154 45.56338 35460 ft 485 kts 311°
2026-04-23 11:45 54.78234 45.48735 35447 ft 489 kts 322°
2026-04-23 11:46 54.83837 45.42046 35455 ft 489 kts 323°
2026-04-23 11:46 54.89458 45.35367 35446 ft 490 kts 322°
2026-04-23 11:47 54.95054 45.28605 35444 ft 490 kts 322°
2026-04-23 11:47 55.00638 45.21790 35445 ft 490 kts 322°
2026-04-23 11:48 55.06217 45.14954 35434 ft 490 kts 322°
2026-04-23 11:48 55.11794 45.08103 35430 ft 490 kts 322°
2026-04-23 11:49 55.17361 45.01240 35429 ft 490 kts 322°
2026-04-23 11:49 55.22927 44.94355 35417 ft 490 kts 322°
2026-04-23 11:50 55.28433 44.87339 35411 ft 487 kts 316°
2026-04-23 11:50 55.32822 44.78455 35420 ft 480 kts 300°
2026-04-23 11:51 55.35840 44.68084 35421 ft 477 kts 292°
2026-04-23 11:51 55.38594 44.57460 35410 ft 478 kts 292°
2026-04-23 11:52 55.41381 44.46839 35409 ft 478 kts 292°
2026-04-23 11:52 55.44196 44.36220 35400 ft 479 kts 292°
2026-04-23 11:53 55.47010 44.25588 35397 ft 479 kts 292°
2026-04-23 11:53 55.49798 44.14996 35402 ft 479 kts 292°
2026-04-23 11:54 55.52593 44.04320 35395 ft 479 kts 292°
2026-04-23 11:54 55.55379 43.93627 35389 ft 479 kts 292°
2026-04-23 11:55 55.58156 43.82926 35388 ft 479 kts 292°
2026-04-23 11:55 55.61176 43.72419 35404 ft 480 kts 297°
2026-04-23 11:56 55.64551 43.62208 35386 ft 481 kts 298°
2026-04-23 11:56 55.67919 43.51974 35383 ft 481 kts 297°
2026-04-23 11:57 55.71254 43.41689 35373 ft 481 kts 297°
2026-04-23 11:57 55.74571 43.31383 35374 ft 481 kts 297°
2026-04-23 11:58 55.77883 43.21064 35366 ft 481 kts 297°
2026-04-23 11:58 55.81413 43.10940 35379 ft 483 kts 303°
2026-04-23 11:59 55.85300 43.01191 35362 ft 484 kts 303°
2026-04-23 11:59 55.89192 42.91420 35359 ft 484 kts 303°
2026-04-23 12:00 55.93025 42.81659 35358 ft 484 kts 303°
2026-04-23 12:00 55.96868 42.71798 35353 ft 484 kts 302°
2026-04-23 12:01 56.00706 42.61916 35372 ft 484 kts 302°
2026-04-23 12:01 56.04532 42.52021 35351 ft 484 kts 302°
2026-04-23 12:02 56.08236 42.41976 35351 ft 483 kts 301°
2026-04-23 12:02 56.11895 42.31864 35344 ft 484 kts 301°
2026-04-23 12:03 56.15566 42.21756 35351 ft 484 kts 301°
2026-04-23 12:03 56.19250 42.11621 35335 ft 485 kts 302°
2026-04-23 12:04 56.23270 42.01889 35338 ft 485 kts 306°
2026-04-23 12:04 56.27419 41.92312 35349 ft 486 kts 306°
2026-04-23 12:05 56.31558 41.82678 35334 ft 487 kts 306°
2026-04-23 12:05 56.35643 41.73055 35336 ft 487 kts 306°
2026-04-23 12:06 56.39743 41.63336 35352 ft 487 kts 306°
2026-04-23 12:06 56.45883 41.48711 35349 ft 487 kts 306°
2026-04-23 12:07 56.49974 41.38926 35349 ft 487 kts 306°
2026-04-23 12:07 56.54056 41.29117 35338 ft 488 kts 306°
2026-04-23 12:08 56.58134 41.19284 35346 ft 488 kts 306°
2026-04-23 12:08 56.61687 41.08850 35356 ft 485 kts 295°
2026-04-23 12:09 56.64140 40.97460 35355 ft 484 kts 287°
2026-04-23 12:09 56.66105 40.85742 35345 ft 485 kts 286°
2026-04-23 12:10 56.68062 40.73991 35356 ft 485 kts 286°
2026-04-23 12:10 56.70041 40.62262 35353 ft 485 kts 286°
2026-04-23 12:11 56.72025 40.50518 35370 ft 485 kts 286°
2026-04-23 12:11 56.73998 40.38767 35367 ft 485 kts 286°
2026-04-23 12:12 56.75955 40.27012 35367 ft 484 kts 286°
2026-04-23 12:12 56.77900 40.15257 35365 ft 484 kts 286°
2026-04-23 12:13 56.79815 40.03600 35371 ft 482 kts 286°
2026-04-23 12:13 56.81726 39.91897 35371 ft 481 kts 286°
2026-04-23 12:14 56.83634 39.80166 35385 ft 483 kts 286°
2026-04-23 12:14 56.85544 39.68392 35379 ft 483 kts 286°
2026-04-23 12:15 56.87445 39.56598 35379 ft 484 kts 286°
2026-04-23 12:15 56.89332 39.44798 35376 ft 483 kts 286°
2026-04-23 12:16 56.91206 39.32993 35378 ft 483 kts 286°
2026-04-23 12:16 56.93069 39.21176 35382 ft 483 kts 287°
2026-04-23 12:17 56.94923 39.09338 35392 ft 483 kts 286°
2026-04-23 12:17 56.96767 38.97479 35392 ft 484 kts 286°
2026-04-23 12:18 56.98601 38.85601 35398 ft 484 kts 286°
2026-04-23 12:18 57.00423 38.73712 35385 ft 485 kts 287°
2026-04-23 12:19 57.02236 38.61795 35404 ft 484 kts 287°
2026-04-23 12:19 57.04037 38.49883 35406 ft 485 kts 287°
2026-04-23 12:20 57.05827 38.37944 35423 ft 485 kts 287°
2026-04-23 12:20 57.07607 38.25989 35417 ft 485 kts 286°
2026-04-23 12:21 57.09365 38.14098 35428 ft 485 kts 287°
2026-04-23 12:21 57.11123 38.02112 35435 ft 486 kts 287°
2026-04-23 12:22 57.12874 37.90099 35423 ft 486 kts 286°
2026-04-23 12:22 57.14611 37.78074 35427 ft 486 kts 287°
2026-04-23 12:23 57.16345 37.66048 35438 ft 485 kts 288°
2026-04-23 12:23 57.18620 37.54377 35447 ft 483 kts 294°
2026-04-23 12:24 57.21131 37.42877 35470 ft 483 kts 294°
2026-04-23 12:24 57.23621 37.31355 35461 ft 484 kts 292°
2026-04-23 12:25 57.26078 37.19787 35483 ft 484 kts 292°
2026-04-23 12:25 57.28515 37.08192 35485 ft 484 kts 293°
2026-04-23 12:26 57.30942 36.96586 35495 ft 484 kts 292°
2026-04-23 12:26 57.33362 36.84952 35502 ft 485 kts 293°
2026-04-23 12:27 57.35774 36.73293 35511 ft 485 kts 293°
2026-04-23 12:27 57.38178 36.61603 35511 ft 486 kts 292°
2026-04-23 12:28 57.40570 36.49896 35538 ft 486 kts 293°
2026-04-23 12:28 57.42952 36.38171 35525 ft 485 kts 293°
2026-04-23 12:29 57.44924 36.28421 35549 ft 486 kts 293°
2026-04-23 12:29 57.47290 36.16657 35552 ft 486 kts 293°
2026-04-23 12:30 57.49647 36.04881 35570 ft 486 kts 293°
2026-04-23 12:30 57.52017 35.93100 35566 ft 486 kts 293°
2026-04-23 12:31 57.54379 35.81313 35588 ft 486 kts 294°
2026-04-23 12:31 57.56728 35.69508 35584 ft 486 kts 294°
2026-04-23 12:32 57.59064 35.57690 35601 ft 486 kts 293°
2026-04-23 12:32 57.61405 35.45893 35609 ft 485 kts 294°
2026-04-23 12:33 57.63819 35.34147 35578 ft 484 kts 295°
2026-04-23 12:33 57.66221 35.22408 35607 ft 483 kts 295°